Regional Weather Roundup
Issued by NWS

Home | Current Version | Previous Version | Graphics & Text | Print | Product List | Glossary Off
Versions: 1 2 3 4 5 6 7 8 9 10 11 12 13 14 15 16 17 18 19 20 21 22 23 24 25 26 27 28 29 30 31 32 33 34 35 36 37 38 39 40 41 42 43 44 45 46 47 48 49 50

000
ASUS43 KMKX 251300
RWRWI

WISCONSIN REGIONAL WEATHER ROUNDUP
NATIONAL WEATHER SERVICE MILWAUKEE/SULLIVAN WI
800 AM CDT WED MAY 25 2016

NOTE: "FAIR" INDICATES FEW OR NO CLOUDS BELOW 12,000 FEET WITH NO
SIGNIFICANT WEATHER AND/OR OBSTRUCTIONS TO VISIBILITY.

WIZ001-002-006>008-014>016-023>028-251400-
NORTHWEST WISCONSIN

CITY           SKY/WX    TMP DP  RH WIND       PRES   REMARKS
SUPERIOR ARPT  FOG       45  45 100 NE6       30.03R VSB 3/4
ASHLAND        FOG       51  51 100 NE7       30.03R VSB 1/4
HAYWARD        CLOUDY    57  55  93 NE6       29.99R
SIREN          CLOUDY    57  56  97 NE6       29.96R FOG
CUMBERLAND     CLOUDY    61  57  88 E6        29.96R
RICE LAKE      CLOUDY    64  58  81 E6        29.97S
CHETEK         CLOUDY    62  59  89 E6        29.96S
LADYSMITH      CLOUDY    61  59  92 E6        30.00R
EAU CLAIRE     NOT AVBL
MENOMONIE      CLOUDY    63  60  88 E6        29.94S
NEW RICHMOND   CLOUDY    64  56  77 E6        29.94R
OSCEOLA        CLOUDY    64  59  86 E5        29.96R
$$

WIZ003>005-009-010-017-018-251400-
NORTH CENTRAL WISCONSIN

CITY           SKY/WX    TMP DP  RH WIND       PRES   REMARKS
MANITOWISH WTR NOT AVBL
ARBOR VITAE    CLOUDY    59  58  97 SE7       30.03R FOG
WOODRUFF       CLOUDY    59  58  97 SE7       30.03R FOG
RHINELANDER    CLOUDY    59  58  96 E13       30.05R FOG
EAGLE RIVER      N/A     58  58 100 E5        30.05R
LAND O LAKES   CLOUDY    57  57 100 E6        30.05R FOG
PHILLIPS       CLOUDY    56  56 100 E3        30.00R
TOMAHAWK       CLOUDY    55  54  97 E5        30.04R FOG
MEDFORD        MOSUNNY   61  59  94 E6        30.01R
MERRILL        CLOUDY    56  56 100 E6        30.03R FOG
$$

WIZ029-030-035-036-043>047-251400-
CENTRAL WISCONSIN

CITY           SKY/WX    TMP DP  RH WIND       PRES   REMARKS
WAUSAU         CLOUDY    61  57  87 E8        30.01R
MOSINEE        NOT AVBL
MARSHFIELD     MOSUNNY   64  58  80 E8        30.00R
STEVENS POINT  CLOUDY    59  56  92 E7        30.01S
WAUPACA        CLOUDY    61  60  97 NE7       30.02R FOG
WAUTOMA        MOSUNNY   66  58  75 NE12      30.01R
WISC RAPIDS    CLOUDY    66  57  72 E8        30.01R
CAMP DOUGLAS   NOT AVBL
$$

WIZ011>013-019>022-031-037>040-048>050-251400-
NORTHEAST WISCONSIN

CITY           SKY/WX    TMP DP  RH WIND       PRES   REMARKS
ANTIGO         FOG       57  57 100 E9        30.05R VSB 1/2
SHAWANO        CLOUDY    61  59  94 E9        30.05R FOG
OCONTO         CLOUDY   N/A N/A N/A E6        30.04R
STURGEON BAY   NOT AVBL
GREEN BAY      CLOUDY    57  56  96 NE10      30.05R FOG
MANITOWOC      CLOUDY    55  55 100 NE9G17    30.05R FOG
APPLETON       FOG       57  57 100 E10G18    30.03R VSB 1/4
CLINTONVILLE   CLOUDY    57  57 100 E6        30.04R FOG
OSHKOSH        MOSUNNY   62  58  86 NE10      30.02R FOG
$$

WIZ032>034-041-042-053>061-251400-
SOUTHWEST WISCONSIN

CITY           SKY/WX    TMP DP  RH WIND       PRES   REMARKS
LA CROSSE      PTSUNNY   67  58  72 E5        29.94R
SPARTA         CLOUDY    60  57  88 CALM      29.96S
VIROQUA        PTSUNNY   67  59  75 E10       29.97R
BOSCOBEL       CLOUDY    65  61  87 NE3       29.96R
PRAIRIE DU CHI CLOUDY    63  60  91 CALM      29.96R
PLATTEVILLE    CLOUDY    69  65  86 S10       29.98R
$$

WIZ056-057-062-063-064-067-068-251400-
SOUTH CENTRAL WISCONSIN

CITY           SKY/WX    TMP DP  RH WIND       PRES   REMARKS
REEDSBURG      CLOUDY    64  60  88 CALM      29.97S
BARABOO/DELLS  CLOUDY    66  59  77 E7        29.98R
LONE ROCK      NOT AVBL
MINERAL POINT  PTSUNNY   68  63  83 SE5       29.99R
MADISON        CLOUDY    69  62  78 SE5       29.99R
MIDDLETON      CLOUDY    70  62  77 E3        29.99R
WATERTOWN      MOSUNNY   69  65  86 SE3       29.99R
MONROE         CLOUDY    68  63  83 S13       29.99R
JANESVILLE     SUNNY     72  64  78 S5        29.98R
$$

WIZ051-052-058>065-066-070>072-251400-
SOUTHEAST WISCONSIN

CITY           SKY/WX    TMP DP  RH WIND       PRES   REMARKS
MILWAUKEE      PTSUNNY   71  60  68 CALM      30.00R
WAUKESHA       SUNNY     68  63  83 S2        30.02R
MILWAUKEE/TIMM NOT AVBL
RACINE         MOSUNNY   74  62  66 SW8       30.02R
BURLINGTON     SUNNY     67  61  79 CALM      30.00R
KENOSHA        PTSUNNY   72  63  73 SW6       30.01R
FOND DU LAC    SUNNY     70  60  70 NE8       30.01R
SHEBOYGAN      SUNNY     59  53  80 NE16      30.03R
WEST BEND      SUNNY     68  61  77 NE7       30.00S
JUNEAU         SUNNY     71  61  70 E5        30.00R
$$

LSZ147-162-251400-
LAKE SUPERIOR

STATION/POSITION TIME  TEMP    WIND        PRES    WAVE
                       AIR SEA DIR/SP/G            HT/PER
                 (UTC) (F)     (DEG/KT/KT) (MB)    (FT/S)
W MID LAKE BUOY  1150   40 38   50/ 14/ 16 1018.1F   1/ 3
DEVILS ISLAND    1200   45      60/ 15/ 17 1017.8F
SAXON HARBOR     1200   47      60/  1/  3 1016.3
$$

LMZ867-665-643>646-251400-
LAKE MICHIGAN

STATION/POSITION TIME  TEMP    WIND        PRES    WAVE
                       AIR SEA DIR/SP/G            HT/PER
                 (UTC) (F)     (DEG/KT/KT) (MB)    (FT/S)
CHAMBERS ISLAND  1200   53      20/ 10/ 14 1017.3S
N MID LAKE BUOY  1150   47 44  360/  6/  8 1016.8F   1
NORTHPORT PIER   1200   51     360/  9/ 11 1016.9F
SISTER BAY       1135   51      30/  5/  8   N/A
ALGOMA LAKESHORE 1132           30/  9/ 14   N/A
KEWAUNEE LAKESHO 1200   50      20/  7/ 10 1016.0R
SHEBOYGAN LAKESH 1200   50      40/ 17/ 18 1016.4R
PORT WASHINGTON  1200   61      30/  5/  7 1016.6
S MID LAKE BUOY  1150   53 49  160/  8/ 10 1015.0R   1
KENOSHA   LAKESH 1200   68     210/  3/  4 1015.6R
$$

TC  - TEMPERATURE IN CELSIUS
VSB - VISIBILITY IN STATUTE MILES
WCI - WIND CHILL INDEX
HX  - HEAT INDEX





USA.gov is the U.S. government's official web portal to all federal, state and local government web resources and services.